Regional Weather Roundup
Issued by NWS

Home | Current Version | Previous Version | Text Only | Print | Product List | Glossary Off
Versions: 1 2 3 4 5 6 7 8 9 10 11 12 13 14 15 16 17 18 19 20 21 22 23 24 25 26 27 28 29 30 31 32 33 34 35 36 37 38 39 40 41 42 43 44 45 46 47 48 49 50

000
ASUS43 KMPX 220601
RWRMN
WEATHER ROUNDUP FOR MINNESOTA
NATIONAL WEATHER SERVICE TWIN CITIES/CHANHASSEN MN
100 AM CDT TUE MAY 22 2018


NOTE: "FAIR" INDICATES FEW OR NO CLOUDS BELOW 12,000 FEET WITH NO
SIGNIFICANT WEATHER AND/OR OBSTRUCTIONS TO VISIBILITY. N/A MEANS
CURRENT SKY AND/OR WEATHER CONDITIONS ARE NOT AVAILABLE.

MNZ060>063-068>070-220700-
   Twin Cities Metro

CITY           SKY/WX    TMP DP  RH WIND       PRES   REMARKS
TWIN CITIES    CLOUDY    59  55  87 S5        30.02R
6HR MIN TEMP:  59; 6HR MAX TEMP:  64;

ST PAUL        CLOUDY    58  54  86 CALM      30.02S
CRYSTAL        CLOUDY    59  53  80 S7        30.00R
BLAINE         MOCLDY    61  54  77 S3        30.01R
LAKEVILLE      CLOUDY    55  54  94 CALM      30.02R
EDEN PRAIRIE   CLOUDY    58  53  84 S5        30.01R
6HR MIN TEMP:  58; 6HR MAX TEMP:  66;

SOUTH ST PAUL  MOCLDY    58  54  84 CALM      30.01S
LAKE ELMO      CLOUDY    59  54  82 S5        30.03R
$$
MNZ001>005-007-008-013>017-022>024-027-028-220700-
   Northwest Minnesota

CITY           SKY/WX    TMP DP  RH WIND       PRES   REMARKS
BEMIDJI        FAIR      49  45  85 CALM      30.00R
HALLOCK        FAIR      54  43  66 S7        29.93S
ROSEAU         FAIR      52  45  76 S7        29.96S
WARROAD        FAIR      55  45  67 S5        29.96S
THIEF RVR FALL FAIR      54  45  71 S8        29.98S
CROOKSTON      FAIR      57  52  82 S8        29.97S
FOSSTON        FAIR      50  43  76 S5        29.99S
DETROIT LAKES  FAIR      54  46  76 SE5       30.00S
MOORHEAD       FAIR      55  52  88 S6        29.98S
PARK RAPIDS    CLOUDY    56  42  59 CALM      29.99S
$$
MNZ006-009>011-018-025>026-220700-
   North Central Minnesota

CITY           SKY/WX    TMP DP  RH WIND       PRES   REMARKS
BAUDETTE       FAIR      50  45  83 SE5       29.97F
FLAG ISLAND    FAIR      59  45  58 SW12      29.93S
INTL FALLS     FAIR      48  41  76 SW3       29.98S
6HR MIN TEMP:  48; 6HR MAX TEMP:  75;

WASKISH        FAIR      48  43  81 CALM      29.99R
BIG FORK       FAIR      46  41  81 CALM      30.00S
LONGVILLE      CLOUDY    52  48  87 CALM      30.00S
GRAND RAPIDS   CLOUDY    53  44  71 CALM      30.02S
CRANE LAKE     FAIR      45  37  76 CALM      30.01S
ORR            FAIR      52  37  58 CALM      29.98S
COOK           FAIR      48  39  71 CALM      30.01S
WALKER         FAIR      46  43  90 CALM      30.00R
$$
MNZ012-019>021-037-220700-
   Northeast Minnesota

CITY           SKY/WX    TMP DP  RH WIND       PRES   REMARKS
DULUTH         CLOUDY    55  41  59 VRB3      30.00F
6HR MIN TEMP:  54; 6HR MAX TEMP:  61; 6HR PCP: TRACE;

ELY            FAIR      46  37  71 CALM      30.01S
HIBBING        MOCLDY    46  41  82 CALM      30.00S
EVELETH        MOCLDY    54  43  66 CALM      30.02S
DULUTH HARBOR  CLOUDY    54  39  58 CALM      30.02S
TWO HARBORS    CLOUDY    55  43  62 CALM      29.99S
SILVER BAY     CLOUDY    50  39  66 CALM      29.99R
GRAND MARAIS     N/A     42  33  70 CALM      29.99F
G MARAIS ARPRT FAIR      39  34  81 W3        30.01S
$$
MNZ029>031-032-039>041-046>048-054>057-064-220700-
   West Central Minnesota

CITY           SKY/WX    TMP DP  RH WIND       PRES   REMARKS
FERGUS FALLS   CLOUDY    57  52  82 SE7       29.96S
WHEATON        MOCLDY    57  54  88 SE6       30.00S
MORRIS         MOCLDY    57  57 100 SE5       29.99R FOG
ALEXANDRIA     CLOUDY    57  48  72 CALM      30.01S
ELBOW LAKE     CLOUDY    57  53  88 E3        30.00S
WADENA         CLOUDY    55  45  67 SE3       30.00S
GLENWOOD       FAIR      50  48  93 NE5       30.00S
APPLETON       CLOUDY    59  55  88 E3        29.98S FOG
BENSON         CLOUDY    57  55  94 CALM      30.01S FOG
ORTONVILLE     CLEAR     57  55  94 E3        29.98S FOG
MADISON        CLOUDY    63  63 100 SE3       29.99R
WILLMAR        CLOUDY    55  54  94 E3        30.02S
$$
MNZ033>034-036-042>043-049>051-058-059-220700-
   Central Minnesota

CITY           SKY/WX    TMP DP  RH WIND       PRES   REMARKS
ST CLOUD       CLOUDY    52  50  93 CALM      30.01S
6HR MIN TEMP:  52; 6HR MAX TEMP:  56;

SAUK CENTRE    CLOUDY    53  50  89 CALM      30.01S
PAYNESVILLE    CLOUDY    55  51  86 CALM      30.02S
AITKIN         CLOUDY    50  46  87 CALM      30.00R
PINE RIVER     CLOUDY    52  45  76 CALM      30.04R
BRAINERD       CLOUDY    57  44  62 CALM      30.01R
STAPLES        CLOUDY    54  45  71 CALM      30.01R
LONG PRAIRIE   CLOUDY    54  48  82 CALM      30.02R
LITTLE FALLS     N/A    N/A N/A N/A CALM        N/A
LITCHFIELD     CLOUDY    57  54  88 NE3       30.01S
BUFFALO        MOCLDY    55  48  77 CALM      30.01F
MAPLE LAKE     FAIR      54  51  89 CALM      30.02S
HUTCHINSON     CLOUDY    58  55  88 E5        30.01F
$$
MNZ037-044-045-052-053-220700-
   East Central Minnesota

CITY           SKY/WX    TMP DP  RH WIND       PRES   REMARKS
PRINCETON      CLOUDY    55  48  76 CALM      30.01S
MORA           CLOUDY    50  46  87 CALM      30.03R
CAMBRIDGE      CLOUDY    61  50  67 S6        30.01S
RUSH CITY      CLOUDY    58  52  80 CALM      30.02R
MOOSE LAKE     CLOUDY    54  46  76 CALM      29.99S
HINCKLEY       CLOUDY    54  50  87 CALM      30.01S
CLOQUET        CLOUDY    54  46  76 CALM      30.01S
MCGREGOR       CLOUDY    52  50  93 CALM      30.01S
$$
MNZ071>073-080-081-089-090-097-098-220700-
   Southwest Minnesota

CITY           SKY/WX    TMP DP  RH WIND       PRES   REMARKS
MONTEVIDEO     CLEAR     55  55 100 S5        29.99S FOG
GRANITE FALLS  PTCLDY    59  58  96 E3        30.01S FOG
CANBY          PTCLDY    59  57  94 CALM      30.00R FOG
MARSHALL       CLEAR     54  54 100 S5        30.00R FOG
REDWOOD FALLS  CLOUDY    58  57  97 E3        30.00R FOG
OLIVIA         CLOUDY    55  54  94 CALM      30.00R
PIPESTONE      FOG       54  54 100 SE3       30.00R VSB 1/4
WINDOM         HAZE      55  41  58 CALM      30.01S VSB 1/4
WORTHINGTON    CLEAR     57  56  96 SE6       30.01S FOG
JACKSON        MOCLDY    55  55 100 SE5       30.02S FOG
TRACY          CLEAR     56  56 100 S5        30.00S FOG
SLAYTON        LGT RAIN  54  54 100 SE3       30.01S VSB<1/4
$$
MNZ065>067-074>077-082>085-091>093-220700-
   South Central Minnesota

CITY           SKY/WX    TMP DP  RH WIND       PRES   REMARKS
MANKATO        CLOUDY    58  56  93 S5        30.02R
NEW ULM        PTCLDY    61  57  88 CALM      30.00S FOG
ST JAMES       CLOUDY    59  59 100 CALM      30.02S FOG
FAIRMONT       FOG       59  57  94 CALM      30.01S VSB 3/4
GLENCOE        CLOUDY    59  54  83 E5        30.00S
FARIBAULT      FAIR      55  54  94 CALM      30.02S
OWATONNA       CLOUDY    55  54  94 CALM      30.02R
WASECA         CLOUDY    55  54  94 CALM      30.03S
ALBERT LEA     CLOUDY    55  54  94 CALM      30.01S FOG
$$
MNZ078>079-086>088-094>096-220700-
   Southeast Minnesota

CITY           SKY/WX    TMP DP  RH WIND       PRES   REMARKS
ROCHESTER      CLOUDY    54  54 100 SE5       30.01F FOG
6HR MIN TEMP:  54; 6HR MAX TEMP:  55; 6HR PCP:  0.04;

RED WING       CLOUDY    57  54  88 CALM      30.00R
STANTON        CLOUDY    57  53  88 CALM      30.01R
DODGE CENTER   CLOUDY    54  52  94 S3        30.02R FOG
WINONA         CLOUDY    55  55 100 CALM      29.98S
AUSTIN         CLOUDY    55  54  94 CALM      30.01S FOG
PRESTON        CLOUDY    54  53  96 CALM      30.02R FOG
$$
ABBREVIATIONS USED IN REMARKS
   TC - TEMPERATURES IN CELSIUS
  WCI - WIND CHILL INDEX
   HX - HEAT INDEX
  VSB - VISIBILITY
$$




USA.gov is the U.S. government's official web portal to all federal, state and local government web resources and services.